Location: Mahannah Oil Field
(37.4664°N, 96.6003°W)
Time: 15:01:12
(UTC+00:00)

Vanguard 2 Rocket - Pass Details

Date: 24 January 2021
Orbit: 554 x 3325 km, 32.9° (Epoch: 06 March)

Event Time Altitude Azimuth Distance (km) Brightness Sun altitude
Rises 17:19:39 0° 191° (S) 7,300 12.3 30.5°
Reaches altitude 10° 17:28:04 10° 173° (S) 6,150 12.6 31.1°
Maximum altitude 17:37:17 16° 143° (SE) 5,270 12.2 31.7°
Drops below altitude 10° 17:45:09 10° 113° (ESE) 5,197 11.4 32.1°
Sets 17:50:59 0° 93° (E) 5,678 11.2 32.4°
